Location: Unspecified
(42.9300°N, 71.1866°W)
Time: 06:32:48
(UTC-04:00)

Cosmos 1674 - Visible Passes

Search period start: 28 July 2016 00:00
Search period end: 07 August 2016 00:00
Orbit: 501 x 525 km, 82.5° (Epoch: 26 July)

Date Brightness Start Highest point End Pass type
(mag) Time Alt. Az. Time Alt. Az. Time Alt. Az.
28 Jul 2.6 04:26:07 10° N 04:29:55 89° E 04:33:39 10° S visible
29 Jul 2.9 04:10:17 10° N 04:14:03 70° E 04:17:47 10° SSE visible
30 Jul 3.3 03:54:29 10° N 03:58:11 55° E 04:01:52 10° SSE visible
31 Jul 3.8 03:38:42 10° N 03:42:19 43° ENE 03:45:53 10° SSE visible
01 Aug 4.2 03:22:57 10° N 03:26:25 34° ENE 03:29:51 10° SE visible
01 Aug 4.5 04:59:34 10° NW 05:01:45 15° W 05:03:56 10° WSW visible
02 Aug 4.6 03:07:14 10° NNE 03:10:32 28° ENE 03:13:21 12° SE visible
02 Aug 4.2 04:43:20 10° NW 04:45:58 18° W 04:48:15 12° SW visible
03 Aug 4.9 02:51:34 10° NNE 02:54:36 23° ENE 02:56:53 14° ESE visible
03 Aug 3.9 04:27:11 10° NW 04:30:10 23° W 04:31:47 17° SW visible
04 Aug 5.1 02:35:59 10° NNE 02:38:41 18° ENE 02:40:29 14° ESE visible
04 Aug 3.7 04:11:07 10° NNW 04:14:22 28° W 04:15:23 24° WSW visible
05 Aug 5.3 02:20:29 10° NNE 02:22:45 15° ENE 02:24:09 13° E visible
05 Aug 3.3 03:55:06 10° NNW 03:58:33 35° W 03:59:03 33° WSW visible
06 Aug 5.5 02:05:09 10° NE 02:06:47 12° ENE 02:07:51 11° E visible
06 Aug 3.0 03:39:08 10° NNW 03:42:43 44° W 03:42:46 44° W visible
